Вернуться в каталог

ELECTRON KICK STAGE R/B

АктивенPO
NORAD 57393·ROCKET BODY·🇺🇸 United States

Запущен Jul 18, 2023 с Rocket Lab Launch Complex 1

Loading…

Ближайшие Пролёты (ближайшие 24 часа)

TLE

СвежийSource: Space-Track

Эпоха: Sep 14, 2026, 06:13 UTC

1 57393U 23100H   26257.25938021  .00006680  00000-0  55157-3 0  9991
2 57393  99.3254 187.9515 0299291 315.3259  42.4177 14.70526065168351

Отслеживайте ELECTRON KICK STAGE R/B в реальном времени с AllMySat

Download on the App Store